This is the latest recevied weather packets stored in our database for station/object KG5TTF. If no packets are shown the sender has not sent any weather packets the latest 10 day(s).
| Time | Temp. | Humidity | Pressure | Rain* | Wind** | Luminosity | Snow |
|---|---|---|---|---|---|---|---|
| 1777592292 | 4.44° C | 85% | 1023.6 hPa | 0 mm | - | 270 W/m² | - |
| 1777591989 | 3.89° C | 87% | 1023.3 hPa | 0 mm | - | 247 W/m² | - |
| 1777591684 | 4.44° C | 89% | 1023.5 hPa | 0 mm | - | 168 W/m² | - |
| 1777591380 | 4.44° C | 89% | 1023.3 hPa | 0 mm | - | 171 W/m² | - |
| 1777591076 | 3.89° C | 90% | 1023.6 hPa | 0 mm | - | 297 W/m² | - |
| 1777590767 | 4.44° C | 91% | 1023.3 hPa | 0 mm | - | 241 W/m² | - |
| 1777590463 | 3.89° C | 91% | 1023.3 hPa | 0 mm | - | 250 W/m² | - |
| 1777590159 | 3.33° C | 91% | 1023.2 hPa | 0 mm | - | 228 W/m² | - |
| 1777589856 | 3.33° C | 92% | 1023.5 hPa | 0 mm | - | 236 W/m² | - |
| 1777589551 | 3.33° C | 94% | 1023.6 hPa | 0 mm | - | 274 W/m² | - |
| 1777589250 | 2.78° C | 94% | 1023.5 hPa | 0 mm | - | 231 W/m² | - |
| 1777588948 | 2.78° C | 95% | 1023.5 hPa | 0 mm | - | 122 W/m² | - |
| 1777588642 | 3.33° C | 95% | 1023.6 hPa | 0 mm | - | 132 W/m² | - |
| 1777588338 | 2.78° C | 96% | 1023.3 hPa | 0 mm | - | 154 W/m² | - |
| 1777588034 | 2.78° C | 96% | 1023.6 hPa | 0 mm | - | 198 W/m² | - |
| 1777587730 | 2.78° C | 96% | 1023.6 hPa | 0 mm | - | 191 W/m² | - |
| 1777587424 | 2.78° C | 97% | 1023.7 hPa | 0 mm | - | 205 W/m² | - |
| 1777587120 | 2.22° C | 97% | 1023.5 hPa | 0 mm | - | 189 W/m² | - |
| 1777586816 | 2.22° C | 97% | 1023.6 hPa | 0 mm | - | 137 W/m² | - |
| 1777586512 | 2.22° C | 97% | 1023.7 hPa | 0 mm | - | 123 W/m² | - |
| 1777586208 | 2.22° C | 97% | 1023.6 hPa | 0 mm | - | 120 W/m² | - |
| 1777585906 | 2.22° C | 97% | 1023.7 hPa | 0 mm | - | 125 W/m² | - |
| 1777585606 | 2.22° C | 97% | 1023.6 hPa | 0 mm | - | 105 W/m² | - |
| 1777585302 | 2.22° C | 97% | 1023.6 hPa | 0 mm | - | 56 W/m² | - |
| 1777585002 | 2.22° C | 97% | 1023.7 hPa | 0 mm | - | 68 W/m² | - |
* Rain latest hour (hover to see other rain measurements)
** Current wind speed in m/s (hover to see current wind gust speed)